Time,TemperatureF,DewpointF,PressureIn,WindDirection,WindDirectionDegrees,WindSpeedMPH,WindSpeedGustMPH,Humidity,HourlyPrecipIn,Conditions,Clouds,dailyrainin,SoftwareType,DateUTC
2013-01-08 00:04:00,69.0,68.0,30.11,ENE,60,4.0,5.0,98,-99.99,,,-99.99,,2013-01-08 05:04:00,
2013-01-08 00:12:00,69.0,68.0,30.10,ENE,57,4.0,5.0,98,-99.99,,,-99.99,,2013-01-08 05:12:00,
2013-01-08 00:22:00,69.0,68.0,30.10,ENE,57,4.0,5.0,98,-99.99,,,-99.99,,2013-01-08 05:22:00,
2013-01-08 00:33:00,69.0,68.0,30.10,NE,48,6.0,8.0,98,-99.99,,,-99.99,,2013-01-08 05:33:00,
2013-01-08 00:43:00,69.0,68.0,30.10,NE,54,4.0,6.0,97,-99.99,,,-99.99,,2013-01-08 05:43:00,
2013-01-08 00:53:00,69.0,68.0,30.09,NE,45,5.0,6.0,97,-99.99,,,-99.99,,2013-01-08 05:53:00,
2013-01-08 01:03:00,69.0,68.0,30.09,NE,45,5.0,6.0,97,-99.99,,,-99.99,,2013-01-08 06:03:00,
2013-01-08 01:12:00,69.0,68.0,30.10,NE,43,5.0,7.0,97,-99.99,,,-99.99,,2013-01-08 06:12:00,
2013-01-08 01:22:00,69.0,68.0,30.10,NE,43,5.0,7.0,97,-99.99,,,-99.99,,2013-01-08 06:22:00,
2013-01-08 01:33:00,69.0,68.0,30.09,NE,48,4.0,5.0,97,-99.99,,,-99.99,,2013-01-08 06:33:00,
2013-01-08 01:42:00,69.0,68.0,30.09,ENE,66,5.0,6.0,97,-99.99,,,-99.99,,2013-01-08 06:42:00,
2013-01-08 01:53:00,70.0,69.0,30.09,ENE,71,5.0,6.0,97,-99.99,,,-99.99,,2013-01-08 06:53:00,
2013-01-08 02:02:00,70.0,69.0,30.09,ENE,71,5.0,6.0,97,-99.99,,,-99.99,,2013-01-08 07:02:00,
2013-01-08 02:12:00,70.0,69.0,30.08,ENE,71,4.0,5.0,97,-99.99,,,-99.99,,2013-01-08 07:12:00,
2013-01-08 02:22:00,70.0,69.0,30.08,ENE,71,4.0,5.0,97,-99.99,,,-99.99,,2013-01-08 07:22:00,
2013-01-08 02:32:00,70.0,69.0,30.08,ENE,75,4.0,6.0,97,-99.99,,,-99.99,,2013-01-08 07:32:00,
2013-01-08 02:42:00,70.0,69.0,30.08,East,97,6.0,34.0,96,-99.99,,,-99.99,,2013-01-08 07:42:00,
2013-01-08 02:52:00,70.0,69.0,30.08,NNW,337,31.0,31.0,95,-99.99,,,-99.99,,2013-01-08 07:52:00,
2013-01-08 03:02:00,70.0,69.0,30.08,NNW,337,31.0,31.0,95,-99.99,,,-99.99,,2013-01-08 08:02:00,
2013-01-08 03:12:00,70.0,68.0,30.08,East,86,5.0,15.0,94,-99.99,,,-99.99,,2013-01-08 08:12:00,
2013-01-08 03:22:00,70.0,68.0,30.08,East,86,5.0,15.0,94,-99.99,,,-99.99,,2013-01-08 08:22:00,
2013-01-08 03:32:00,70.0,68.0,30.08,East,86,5.0,15.0,94,-99.99,,,-99.99,,2013-01-08 08:32:00,
2013-01-08 03:42:00,71.0,69.0,30.07,ESE,111,6.0,15.0,94,-99.99,,,-99.99,,2013-01-08 08:42:00,
2013-01-08 03:53:00,70.0,69.0,30.07,ESE,106,8.0,32.0,94,-99.99,,,-99.99,,2013-01-08 08:53:00,
2013-01-08 04:02:00,70.0,69.0,30.07,ESE,106,8.0,32.0,94,-99.99,,,-99.99,,2013-01-08 09:02:00,
2013-01-08 04:12:00,70.0,69.0,30.07,ENE,78,3.0,8.0,95,-99.99,,,-99.99,,2013-01-08 09:12:00,
2013-01-08 04:22:00,70.0,69.0,30.07,ENE,68,5.0,46.0,96,-99.99,,,-99.99,,2013-01-08 09:22:00,
2013-01-08 04:32:00,70.0,69.0,30.07,ENE,68,5.0,46.0,96,-99.99,,,-99.99,,2013-01-08 09:32:00,
2013-01-08 04:42:00,70.0,69.0,30.07,ENE,73,5.0,40.0,96,-99.99,,,-99.99,,2013-01-08 09:42:00,
2013-01-08 04:53:00,70.0,69.0,30.07,SSE,165,5.0,31.0,96,-99.99,,,-99.99,,2013-01-08 09:53:00,
2013-01-08 05:02:00,70.0,69.0,30.07,SSE,165,5.0,31.0,96,-99.99,,,-99.99,,2013-01-08 10:02:00,
2013-01-08 05:12:00,70.0,69.0,30.07,SSW,205,3.0,31.0,97,-99.99,,,-99.99,,2013-01-08 10:12:00,
2013-01-08 05:22:00,70.0,69.0,30.07,SSW,205,3.0,31.0,97,-99.99,,,-99.99,,2013-01-08 10:22:00,
2013-01-08 05:33:00,70.0,69.0,30.07,SSW,195,6.0,14.0,97,-99.99,,,-99.99,,2013-01-08 10:33:00,
2013-01-08 05:42:00,70.0,69.0,30.08,SE,138,9.0,39.0,97,-99.99,,,-99.99,,2013-01-08 10:42:00,
2013-01-08 05:52:00,70.0,69.0,30.08,ESE,121,8.0,42.0,97,-99.99,,,-99.99,,2013-01-08 10:52:00,
2013-01-08 06:02:00,70.0,69.0,30.08,ESE,121,8.0,42.0,97,-99.99,,,-99.99,,2013-01-08 11:02:00,
2013-01-08 06:12:00,70.0,69.0,30.09,ENE,68,3.0,10.0,97,-99.99,,,-99.99,,2013-01-08 11:12:00,
2013-01-08 06:23:00,70.0,69.0,30.09,ENE,68,3.0,10.0,97,-99.99,,,-99.99,,2013-01-08 11:23:00,
2013-01-08 06:33:00,69.0,69.0,30.10,SSW,210,3.0,11.0,97,-99.99,,,-99.99,,2013-01-08 11:33:00,
2013-01-08 06:42:00,69.0,69.0,30.10,ENE,63,3.0,8.0,97,-99.99,,,-99.99,,2013-01-08 11:42:00,
2013-01-08 06:53:00,69.0,68.0,30.10,ENE,58,3.0,4.0,97,-99.99,,,-99.99,,2013-01-08 11:53:00,
2013-01-08 07:03:00,69.0,68.0,30.10,ENE,58,3.0,4.0,97,-99.99,,,-99.99,,2013-01-08 12:03:00,
2013-01-08 07:12:00,69.0,68.0,30.11,ENE,77,2.0,4.0,98,-99.99,,,-99.99,,2013-01-08 12:12:00,
2013-01-08 07:22:00,69.0,68.0,30.11,ENE,77,2.0,4.0,98,-99.99,,,-99.99,,2013-01-08 12:22:00,
2013-01-08 07:33:00,69.0,68.0,30.12,NE,49,3.0,4.0,98,-99.99,,,-99.99,,2013-01-08 12:33:00,
2013-01-08 07:43:00,69.0,68.0,30.12,NNE,27,3.0,4.0,98,-99.99,,,-99.99,,2013-01-08 12:43:00,
2013-01-08 07:53:00,69.0,68.0,30.13,NE,40,3.0,4.0,98,-99.99,,,-99.99,,2013-01-08 12:53:00,
2013-01-08 08:03:00,69.0,68.0,30.13,NE,40,3.0,4.0,98,-99.99,,,-99.99,,2013-01-08 13:03:00,
2013-01-08 08:13:00,69.0,69.0,30.13,NE,38,3.0,4.0,98,-99.99,,,-99.99,,2013-01-08 13:13:00,
2013-01-08 08:22:00,69.0,69.0,30.13,NE,38,3.0,4.0,98,-99.99,,,-99.99,,2013-01-08 13:22:00,
2013-01-08 08:33:00,70.0,69.0,30.14,NNE,30,3.0,5.0,98,-99.99,,,-99.99,,2013-01-08 13:33:00,
2013-01-08 08:43:00,70.0,70.0,30.15,NE,41,4.0,6.0,98,-99.99,,,-99.99,,2013-01-08 13:43:00,
2013-01-08 08:53:00,71.0,70.0,30.15,NE,50,4.0,6.0,98,-99.99,,,-99.99,,2013-01-08 13:53:00,
2013-01-08 09:03:00,71.0,70.0,30.15,NE,50,4.0,6.0,98,-99.99,,,-99.99,,2013-01-08 14:03:00,
2013-01-08 09:13:00,71.0,70.0,30.16,NE,41,5.0,6.0,97,-99.99,,,-99.99,,2013-01-08 14:13:00,
2013-01-08 09:23:00,71.0,70.0,30.16,NE,41,5.0,6.0,97,-99.99,,,-99.99,,2013-01-08 14:23:00,
2013-01-08 09:33:00,71.0,70.0,30.16,NE,41,5.0,6.0,97,-99.99,,,-99.99,,2013-01-08 14:33:00,
2013-01-08 09:43:00,71.0,71.0,30.18,NNE,33,4.0,5.0,96,-99.99,,,-99.99,,2013-01-08 14:43:00,
2013-01-08 09:53:00,71.0,70.0,30.19,ENE,74,4.0,9.0,96,-99.99,,,-99.99,,2013-01-08 14:53:00,
2013-01-08 10:03:00,71.0,70.0,30.19,ENE,74,4.0,9.0,96,-99.99,,,-99.99,,2013-01-08 15:03:00,
2013-01-08 10:12:00,72.0,71.0,30.19,NE,35,5.0,8.0,96,-99.99,,,-99.99,,2013-01-08 15:12:00,
2013-01-08 10:22:00,72.0,71.0,30.19,NE,35,5.0,8.0,96,-99.99,,,-99.99,,2013-01-08 15:22:00,
2013-01-08 10:33:00,73.0,72.0,30.19,NNE,22,5.0,7.0,96,-99.99,,,-99.99,,2013-01-08 15:33:00,
2013-01-08 10:43:00,74.0,72.0,30.19,NE,49,6.0,9.0,94,-99.99,,,-99.99,,2013-01-08 15:43:00,
2013-01-08 10:53:00,74.0,72.0,30.19,NE,50,7.0,10.0,92,-99.99,,,-99.99,,2013-01-08 15:53:00,
2013-01-08 11:03:00,74.0,72.0,30.19,NE,50,7.0,10.0,92,-99.99,,,-99.99,,2013-01-08 16:03:00,
2013-01-08 11:13:00,74.0,70.0,30.19,NE,53,6.0,10.0,88,-99.99,,,-99.99,,2013-01-08 16:13:00,
2013-01-08 11:23:00,74.0,70.0,30.19,NE,53,6.0,10.0,88,-99.99,,,-99.99,,2013-01-08 16:23:00,
2013-01-08 11:34:00,74.0,71.0,30.18,ENE,70,4.0,7.0,87,-99.99,,,-99.99,,2013-01-08 16:34:00,
2013-01-08 11:43:00,77.0,72.0,30.18,ESE,108,4.0,12.0,83,-99.99,,,-99.99,,2013-01-08 16:43:00,
2013-01-08 11:53:00,80.0,71.0,30.17,SE,146,9.0,13.0,74,-99.99,,,-99.99,,2013-01-08 16:53:00,
2013-01-08 12:03:00,80.0,71.0,30.17,SE,146,9.0,13.0,74,-99.99,,,-99.99,,2013-01-08 17:03:00,
2013-01-08 12:13:00,80.0,70.0,30.16,SSE,155,9.0,14.0,70,-99.99,,,-99.99,,2013-01-08 17:13:00,
2013-01-08 12:23:00,80.0,70.0,30.16,SSE,155,9.0,14.0,70,-99.99,,,-99.99,,2013-01-08 17:23:00,
2013-01-08 12:34:00,81.0,70.0,30.16,SE,139,9.0,13.0,70,-99.99,,,-99.99,,2013-01-08 17:34:00,
2013-01-08 12:43:00,80.0,70.0,30.15,SE,146,11.0,18.0,70,-99.99,,,-99.99,,2013-01-08 17:43:00,
2013-01-08 12:54:00,81.0,71.0,30.15,SE,136,11.0,19.0,70,-99.99,,,-99.99,,2013-01-08 17:54:00,
2013-01-08 13:04:00,81.0,71.0,30.15,SE,136,11.0,19.0,70,-99.99,,,-99.99,,2013-01-08 18:04:00,
2013-01-08 13:13:00,81.0,71.0,30.15,SE,130,9.0,15.0,72,-99.99,,,-99.99,,2013-01-08 18:13:00,
2013-01-08 13:23:00,81.0,71.0,30.15,SE,130,9.0,15.0,72,-99.99,,,-99.99,,2013-01-08 18:23:00,
2013-01-08 13:33:00,81.0,71.0,30.15,SE,130,9.0,15.0,72,-99.99,,,-99.99,,2013-01-08 18:33:00,
2013-01-08 13:43:00,79.0,71.0,30.13,SE,131,10.0,15.0,75,-99.99,,,-99.99,,2013-01-08 18:43:00,
2013-01-08 13:53:00,79.0,71.0,30.13,SE,130,11.0,18.0,75,-99.99,,,-99.99,,2013-01-08 18:53:00,
2013-01-08 14:03:00,79.0,71.0,30.13,SE,130,11.0,18.0,75,-99.99,,,-99.99,,2013-01-08 19:03:00,
2013-01-08 14:12:00,79.0,71.0,30.12,SE,134,12.0,20.0,76,-99.99,,,-99.99,,2013-01-08 19:12:00,
2013-01-08 14:23:00,79.0,71.0,30.12,SE,134,12.0,20.0,76,-99.99,,,-99.99,,2013-01-08 19:23:00,
2013-01-08 14:33:00,79.0,72.0,30.12,ESE,123,11.0,16.0,78,-99.99,,,-99.99,,2013-01-08 19:33:00,
2013-01-08 14:43:00,79.0,72.0,30.12,SE,126,12.0,18.0,78,-99.99,,,-99.99,,2013-01-08 19:43:00,
2013-01-08 14:53:00,79.0,72.0,30.12,SE,134,12.0,22.0,77,-99.99,,,-99.99,,2013-01-08 19:53:00,
2013-01-08 15:03:00,79.0,72.0,30.12,SE,134,12.0,22.0,77,-99.99,,,-99.99,,2013-01-08 20:03:00,
2013-01-08 15:12:00,79.0,72.0,30.12,SE,137,11.0,19.0,76,-99.99,,,-99.99,,2013-01-08 20:12:00,
2013-01-08 15:23:00,79.0,72.0,30.12,SE,137,11.0,19.0,76,-99.99,,,-99.99,,2013-01-08 20:23:00,
2013-01-08 15:33:00,79.0,71.0,30.12,SE,130,12.0,17.0,76,-99.99,,,-99.99,,2013-01-08 20:33:00,
2013-01-08 15:43:00,78.0,71.0,30.12,SE,134,10.0,16.0,78,-99.99,,,-99.99,,2013-01-08 20:43:00,
2013-01-08 15:54:00,79.0,71.0,30.12,SE,134,10.0,18.0,77,-99.99,,,-99.99,,2013-01-08 20:54:00,
2013-01-08 16:03:00,79.0,71.0,30.12,SE,134,10.0,18.0,77,-99.99,,,-99.99,,2013-01-08 21:03:00,
2013-01-08 16:13:00,79.0,71.0,30.12,SE,127,10.0,17.0,76,-99.99,,,-99.99,,2013-01-08 21:13:00,
2013-01-08 16:23:00,79.0,71.0,30.12,SE,127,10.0,17.0,76,-99.99,,,-99.99,,2013-01-08 21:23:00,
2013-01-08 16:33:00,78.0,71.0,30.12,SE,129,11.0,19.0,77,-99.99,,,-99.99,,2013-01-08 21:33:00,
2013-01-08 16:43:00,77.0,71.0,30.12,SE,132,9.0,15.0,80,-99.99,,,-99.99,,2013-01-08 21:43:00,
2013-01-08 16:53:00,77.0,71.0,30.12,SE,133,9.0,17.0,79,-99.99,,,-99.99,,2013-01-08 21:53:00,
2013-01-08 17:04:00,77.0,71.0,30.12,SE,133,9.0,17.0,79,-99.99,,,-99.99,,2013-01-08 22:04:00,
2013-01-08 17:12:00,78.0,71.0,30.13,SE,133,10.0,15.0,77,-99.99,,,-99.99,,2013-01-08 22:12:00,
2013-01-08 17:23:00,78.0,71.0,30.13,SE,133,10.0,15.0,77,-99.99,,,-99.99,,2013-01-08 22:23:00,
2013-01-08 17:33:00,77.0,71.0,30.13,SE,130,8.0,13.0,80,-99.99,,,-99.99,,2013-01-08 22:33:00,
2013-01-08 17:43:00,77.0,71.0,30.13,SE,129,7.0,11.0,82,-99.99,,,-99.99,,2013-01-08 22:43:00,
2013-01-08 17:53:00,76.0,71.0,30.14,ESE,120,6.0,14.0,83,-99.99,,,-99.99,,2013-01-08 22:53:00,
2013-01-08 18:03:00,76.0,71.0,30.14,ESE,120,6.0,14.0,83,-99.99,,,-99.99,,2013-01-08 23:03:00,
2013-01-08 18:13:00,76.0,71.0,30.14,ESE,123,5.0,14.0,84,-99.99,,,-99.99,,2013-01-08 23:13:00,
2013-01-08 18:23:00,76.0,71.0,30.14,ESE,123,5.0,14.0,84,-99.99,,,-99.99,,2013-01-08 23:23:00,
2013-01-08 18:33:00,76.0,71.0,30.14,ESE,123,5.0,14.0,84,-99.99,,,-99.99,,2013-01-08 23:33:00,
2013-01-08 18:43:00,75.0,71.0,30.14,ESE,120,7.0,10.0,86,-99.99,,,-99.99,,2013-01-08 23:43:00,
2013-01-08 18:53:00,75.0,71.0,30.14,ESE,113,7.0,9.0,87,-99.99,,,-99.99,,2013-01-08 23:53:00,
2013-01-08 19:03:00,75.0,71.0,30.14,ESE,113,7.0,9.0,87,-99.99,,,-99.99,,2013-01-09 00:03:00,
2013-01-08 19:13:00,75.0,71.0,30.14,ESE,110,6.0,9.0,87,-99.99,,,-99.99,,2013-01-09 00:13:00,
2013-01-08 19:22:00,75.0,71.0,30.14,ESE,110,6.0,9.0,87,-99.99,,,-99.99,,2013-01-09 00:22:00,
2013-01-08 19:33:00,74.0,71.0,30.14,ESE,118,5.0,9.0,88,-99.99,,,-99.99,,2013-01-09 00:33:00,
2013-01-08 19:43:00,74.0,71.0,30.15,ESE,116,6.0,9.0,88,-99.99,,,-99.99,,2013-01-09 00:43:00,
2013-01-08 19:53:00,74.0,71.0,30.15,ESE,113,6.0,9.0,89,-99.99,,,-99.99,,2013-01-09 00:53:00,
2013-01-08 20:02:00,74.0,71.0,30.15,ESE,113,6.0,9.0,89,-99.99,,,-99.99,,2013-01-09 01:02:00,
2013-01-08 20:12:00,74.0,71.0,30.15,ESE,115,7.0,11.0,88,-99.99,,,-99.99,,2013-01-09 01:12:00,
2013-01-08 20:22:00,74.0,71.0,30.15,ESE,115,7.0,11.0,88,-99.99,,,-99.99,,2013-01-09 01:22:00,
2013-01-08 20:33:00,75.0,71.0,30.15,ESE,112,6.0,10.0,88,-99.99,,,-99.99,,2013-01-09 01:33:00,
2013-01-08 20:42:00,75.0,71.0,30.15,ESE,110,6.0,8.0,88,-99.99,,,-99.99,,2013-01-09 01:42:00,
2013-01-08 20:53:00,75.0,71.0,30.15,ESE,108,6.0,10.0,88,-99.99,,,-99.99,,2013-01-09 01:53:00,
2013-01-08 21:02:00,75.0,71.0,30.15,ESE,108,6.0,10.0,88,-99.99,,,-99.99,,2013-01-09 02:02:00,
2013-01-08 21:12:00,75.0,71.0,30.16,ESE,111,8.0,13.0,88,-99.99,,,-99.99,,2013-01-09 02:12:00,
2013-01-08 21:23:00,75.0,71.0,30.16,ESE,111,8.0,13.0,88,-99.99,,,-99.99,,2013-01-09 02:23:00,
2013-01-08 21:33:00,75.0,71.0,30.16,ESE,111,8.0,13.0,88,-99.99,,,-99.99,,2013-01-09 02:33:00,
2013-01-08 21:43:00,75.0,71.0,30.15,ESE,119,9.0,14.0,85,-99.99,,,-99.99,,2013-01-09 02:43:00,
2013-01-08 21:53:00,75.0,71.0,30.15,ESE,119,7.0,12.0,86,-99.99,,,-99.99,,2013-01-09 02:53:00,
2013-01-08 22:03:00,75.0,71.0,30.15,ESE,119,7.0,12.0,86,-99.99,,,-99.99,,2013-01-09 03:03:00,
2013-01-08 22:12:00,75.0,71.0,30.15,ESE,122,8.0,14.0,87,-99.99,,,-99.99,,2013-01-09 03:12:00,
2013-01-08 22:22:00,75.0,71.0,30.15,ESE,122,8.0,14.0,87,-99.99,,,-99.99,,2013-01-09 03:22:00,
2013-01-08 22:33:00,75.0,71.0,30.15,ESE,122,8.0,14.0,87,-99.99,,,-99.99,,2013-01-09 03:33:00,
2013-01-08 22:43:00,75.0,71.0,30.15,ESE,122,8.0,14.0,87,-99.99,,,-99.99,,2013-01-09 03:43:00,
2013-01-08 23:12:00,75.0,71.0,30.16,ESE,122,8.0,14.0,87,-99.99,,,-99.99,,2013-01-09 04:12:00,
2013-01-08 23:23:00,75.0,71.0,30.16,ESE,122,8.0,14.0,87,-99.99,,,-99.99,,2013-01-09 04:23:00,
2013-01-08 23:33:00,75.0,71.0,30.16,ESE,119,8.0,14.0,87,-99.99,,,-99.99,,2013-01-09 04:33:00,
2013-01-08 23:43:00,73.0,70.0,30.16,SE,133,13.0,28.0,90,-99.99,,,-99.99,,2013-01-09 04:43:00,
2013-01-08 23:53:00,73.0,70.0,30.16,SE,135,8.0,14.0,92,-99.99,,,-99.99,,2013-01-09 04:53:00,